Vorticity
6 3 5 10 11 11 11 11 8 6 8 10 8 7 7 6 4 4 8 11 10 7 5 3 1 -0 -1 1 6 10 11 10 9 9 9 9 9 9 10 11 11 10 10 11 10 10 10 10 10 11 10 10 9 9 9 8 9 9 9 8 8 8 8 8 9 9 9 8 8 8 8 8 8 9 8 9 10 10 10 10 10 11 12 12 12
7 5 7 10 11 10 10 10 9 7 8 9 7 6 6 5 2 2 4 7 8 6 5 4 3 3 3 5 8 9 8 7 7 7 7 6 5 6 7 7 7 8 8 8 8 9 10 11 11 11 11 11 11 11 11 10 9 9 9 9 9 9 8 8 7 7 7 7 8 9 8 9 9 9 9 10 10 10 11 11 11 12 11 10 8
6 6 7 8 10 11 11 10 9 9 7 8 11 9 6 5 2 2 3 4 5 6 7 9 10 11 10 11 12 10 8 7 7 7 6 4 5 6 5 5 6 7 8 8 8 9 9 9 8 9 10 10 10 10 10 9 9 9 10 10 11 11 10 10 9 9 9 10 11 11 11 11 11 11 11 10 11 11 10 10 9 9 8 7 7
3 5 8 5 4 8 14 15 12 11 9 9 12 12 10 9 6 4 4 3 3 4 7 11 14 16 16 14 13 10 8 7 7 7 7 6 6 5 4 6 8 10 10 9 8 8 8 8 7 8 8 8 8 7 7 8 9 10 11 11 11 10 10 10 10 11 11 11 11 12 12 12 12 12 11 11 10 10 9 9 8 8 8 8 7
5 5 9 7 3 4 11 15 12 9 10 10 10 10 11 12 11 9 8 6 5 5 7 10 12 16 16 13 11 10 8 8 8 8 8 5 4 4 6 8 9 9 9 8 8 7 7 8 8 8 8 7 7 7 8 9 9 9 8 8 8 8 8 9 9 10 10 10 10 10 9 8 8 8 8 8 8 7 8 7 7 8 8 7 7
3 1 8 11 9 5 3 7 8 3 2 7 10 9 7 7 9 10 8 7 8 7 6 7 10 14 15 12 10 10 9 8 8 7 5 4 4 5 7 9 9 9 9 8 7 7 8 8 9 8 7 7 8 8 8 8 7 6 7 7 7 7 8 8 9 9 9 9 8 6 4 4 4 5 6 6 6 6 6 7 7 8 7 7 7
4 1 3 6 12 12 3 -0 1 -2 1 8 11 11 8 4 5 8 9 7 7 8 8 8 10 12 12 10 9 9 8 7 5 5 4 4 5 7 8 9 10 9 8 7 7 7 8 8 8 7 7 7 7 6 5 5 5 6 7 7 7 7 8 8 8 8 8 7 5 3 3 4 5 6 6 6 7 7 7 7 6 6 5 5 5
9 8 5 2 6 10 8 5 2 2 6 7 8 13 15 11 7 7 9 8 7 8 9 9 11 12 12 10 8 7 6 4 3 3 3 4 6 9 10 10 10 10 9 8 8 7 7 7 7 6 6 6 5 5 5 6 7 8 8 9 9 9 9 8 8 8 6 6 5 5 7 8 9 9 8 8 7 7 7 7 6 5 5 5 4
12 13 13 11 6 5 13 13 3 1 10 13 9 9 12 14 12 6 3 5 7 7 7 7 11 13 11 9 8 7 7 6 4 3 4 6 8 8 9 9 10 10 9 8 7 7 7 6 5 5 5 5 5 6 6 7 7 8 9 9 9 9 9 9 9 8 8 8 8 10 11 10 10 11 12 13 12 11 11 7 1 -1 1 3 5
16 13 10 12 9 7 12 10 -0 0 16 25 17 5 3 11 13 7 4 5 6 6 6 5 8 11 11 9 7 8 8 6 6 6 7 8 9 9 10 10 11 10 9 8 7 6 6 5 5 5 5 5 6 6 7 7 8 7 7 7 8 8 9 8 7 6 7 7 7 8 9 7 7 9 11 13 12 11 7 -0 -5 -3 1 5 8
15 7 1 6 11 12 16 19 14 6 7 13 9 1 2 10 12 8 5 6 6 6 5 4 5 8 10 9 5 5 6 6 6 7 8 8 8 8 9 9 9 9 7 6 5 4 5 4 4 4 4 4 4 5 6 6 5 4 4 4 4 5 5 5 4 4 5 5 5 6 5 4 5 6 8 8 7 5 3 0 1 2 2 6 8
9 5 7 14 21 23 22 23 21 10 6 14 15 9 11 16 16 7 1 2 6 8 9 9 9 9 10 10 7 3 2 3 4 5 6 5 5 6 7 8 8 6 5 5 4 3 3 3 4 4 4 4 5 5 5 4 3 2 2 2 1 2 3 3 3 3 3 3 3 3 4 5 6 7 6 4 2 2 4 4 4 4 5 10 13
5 10 17 21 21 15 3 -0 4 6 10 13 12 12 15 16 11 1 -3 3 8 9 9 8 9 12 13 12 9 6 4 3 4 5 5 3 4 6 8 9 7 5 4 3 2 2 2 3 5 5 5 6 7 7 7 7 6 4 2 2 2 2 2 2 2 2 1 -0 -2 -3 -3 -3 -0 4 5 4 0 -1 2 4 3 3 4 7 7
14 15 15 10 4 -4 -11 -7 3 8 13 14 11 13 14 9 2 -3 -1 5 7 7 8 8 10 15 17 15 13 9 7 5 6 7 7 5 6 9 10 8 5 5 4 3 2 3 3 4 5 5 5 5 5 6 6 6 6 4 3 2 2 2 2 1 1 1 1 0 -1 -2 -2 -2 -1 0 -0 -1 -2 -3 0 3 3 3 2 2 2
13 12 9 2 -5 -9 -7 2 9 10 13 14 10 7 5 3 2 3 4 6 7 8 8 8 9 12 14 17 17 15 12 11 9 7 7 7 8 9 7 4 3 4 4 3 2 3 3 5 6 6 4 4 4 4 3 2 2 3 3 3 2 2 1 0 0 -0 -0 -0 -1 -0 1 3 4 4 2 2 3 2 1 -1 -0 3 2 -0 1
8 5 3 1 -4 -8 -2 8 15 15 15 12 7 4 6 8 8 8 6 4 6 8 8 7 7 7 9 12 16 19 15 11 9 6 4 5 6 6 5 4 5 5 4 3 3 4 5 6 6 6 6 5 5 4 3 2 0 -0 -0 0 0 -1 -0 -0 -0 -1 -2 -2 -2 -2 -1 0 2 4 6 7 8 9 6 0 -1 2 -0 -2 3
12 12 13 15 9 4 10 15 15 13 12 14 12 7 6 10 10 8 5 4 7 9 9 8 6 6 6 6 11 18 17 11 9 6 2 -0 1 3 5 6 6 4 3 2 2 3 5 5 6 6 5 5 5 4 4 3 1 -0 -1 -1 -1 -0 1 1 0 -0 -1 -1 -1 0 0 1 1 2 5 7 8 10 8 1 -5 -3 -2 2 5
1 3 11 18 12 12 20 19 12 8 5 6 7 7 8 10 8 6 6 7 9 10 10 10 9 9 9 6 5 10 12 8 2 -3 -4 -3 0 4 6 7 7 7 6 5 3 2 2 2 3 4 3 4 4 4 4 3 2 2 2 2 2 2 2 2 1 2 2 2 3 3 3 5 7 6 4 5 6 8 8 3 -1 -1 3 4 1
-7 -12 -8 -6 -9 -3 6 3 1 7 11 9 7 6 8 6 2 4 7 6 4 4 6 7 5 5 8 8 6 5 4 1 -2 -3 -1 1 2 3 3 5 7 7 7 7 6 5 4 3 3 3 2 2 2 2 3 3 3 3 2 2 2 2 2 2 1 1 2 2 2 2 4 6 7 6 5 3 4 5 6 7 7 7 6 4 1
4 2 2 -2 -5 -3 -1 -3 -5 -2 5 15 18 12 7 5 2 1 4 5 4 5 7 7 7 11 13 9 7 6 5 4 2 1 2 3 3 4 4 5 6 6 6 6 5 5 5 4 4 3 2 1 2 3 3 3 3 4 4 4 4 2 1 1 2 2 3 3 2 2 4 6 7 9 10 8 8 8 8 8 8 7 6 5 5
10 13 13 11 8 6 5 9 10 2 -7 -2 7 10 9 10 8 3 1 2 0 -0 2 2 5 14 19 16 13 11 9 9 8 4 4 5 5 4 2 1 0 1 3 4 4 4 4 4 3 3 2 0 -0 1 2 3 4 3 3 3 3 1 1 1 1 2 3 4 5 5 5 7 10 12 13 12 11 11 10 9 6 3 2 2 2
12 12 10 8 9 10 10 12 17 17 8 -4 -6 -3 -1 2 5 5 4 3 1 0 1 -3 -5 -2 2 6 9 11 13 17 16 12 7 1 -2 -0 1 1 1 4 7 8 8 6 6 6 7 5 3 2 -1 -2 -2 -0 2 1 1 3 4 4 4 3 2 4 7 9 10 10 9 10 10 10 10 9 9 8 5 3 2 1 3 4 7
10 9 7 4 5 9 11 7 5 10 13 7 -1 -2 -0 -0 -0 1 3 5 7 7 5 1 -0 -0 -2 -5 -8 -9 -5 -3 -4 -4 -2 -4 -3 1 2 2 4 8 11 12 12 10 7 5 5 5 5 5 2 -2 -3 0 5 6 6 8 11 11 11 11 10 11 12 11 10 10 10 10 9 8 6 6 5 3 2 1 1 3 5 7 11
7 7 7 7 8 8 8 8 5 5 7 7 3 3 6 8 7 4 3 3 1 -2 -3 -3 0 5 7 3 -3 -8 -9 -9 -9 -6 -3 -2 -1 -2 -4 -5 -3 -1 1 5 9 10 8 5 7 11 12 9 5 3 5 8 11 11 10 11 11 10 9 8 7 5 5 5 5 6 6 6 6 5 5 4 3 3 4 5 8 9 11 13 15
2 3 3 4 6 7 6 7 7 5 5 4 4 4 7 7 2 -5 -7 -8 -11 -11 -6 1 6 8 8 6 4 1 -2 -3 -2 -3 -4 -4 -1 3 6 8 7 4 5 8 9 10 9 7 7 9 8 6 5 7 10 11 10 9 9 9 9 8 8 6 5 4 5 6 7 8 8 7 6 6 6 6 6 8 10 11 11 12 13 13 14
-1 2 4 4 4 6 7 7 6 6 6 4 5 6 6 3 -3 -11 -13 -10 -8 -6 1 9 13 14 11 8 6 4 2 1 1 1 1 4 7 9 12 14 14 12 12 12 11 10 10 10 9 7 6 6 6 6 7 7 8 9 10 9 9 10 11 11 11 11 11 11 11 10 9 8 8 8 8 8 8 8 8 8 10 13 13 11 9
5 8 10 10 8 7 7 7 7 7 7 6 6 7 6 6 5 1 -0 1 3 7 11 14 15 16 16 15 13 13 13 13 13 12 13 13 12 11 10 8 8 9 9 9 8 8 9 10 10 10 11 10 10 9 8 7 8 8 9 10 11 11 11 11 12 11 11 10 8 7 7 7 7 6 6 7 8 10 12 15 18 19 18 16 14
11 13 13 14 14 13 13 13 12 12 12 12 11 11 11 11 11 12 12 12 11 11 11 11 12 13 13 13 13 13 13 12 12 11 9 8 7 7 6 4 4 4 4 4 5 6 7 7 7 8 9 10 11 12 12 11 10 9 8 8 8 8 8 8 8 8 7 6 5 4 5 5 7 10 12 15 17 18 18 17 16 18 21 21 20
12 12 13 13 13 13 13 13 13 13 14 14 13 13 14 13 12 12 12 11 10 9 7 6 6 5 5 5 5 4 4 4 4 3 4 5 5 5 6 7 8 8 8 8 8 9 9 9 9 10 10 10 11 10 10 10 9 8 7 6 6 7 7 7 7 7 6 6 7 7 8 10 14 18 19 21 21 20 20 20 20 22 24 22 19
6 5 5 5 5 6 6 6 7 7 8 9 9 8 9 9 8 7 7 6 6 6 6 6 6 5 5 5 4 4 5 5 6 7 8 9 9 9 9 9 9 9 10 10 11 11 11 11 12 12 12 12 12 12 11 11 11 11 11 11 11 11 11 11 12 13 13 14 15 15 16 17 19 20 20 18 17 17 18 23 26 21 12 7 8
4 4 5 5 6 6 6 6 7 6 6 6 6 6 6 6 6 6 6 6 6 5 5 5 4 4 5 5 5 7 6 6 7 8 9 10 11 12 13 14 15 17 18 19 20 21 22 23 24 24 25 25 25 25 26 26 26 27 27 26 26 25 23 21 20 19 19 20 20 21 23 22 22 25 22 17 16 15 12 14 19 17 11 10 11
8 7 7 7 7 7 6 6 5 5 5 5 6 6 6 6 6 7 6 6 6 6 6 6 7 8 9 9 11 12 13 15 17 17 18 20 22 24 25 26 27 28 28 28 27 26 27 27 27 27 27 27 27 28 28 28 28 28 27 28 28 29 29 28 27 25 23 22 20 21 21 20 21 21 16 11 11 11 11 14 16 12 9 11 12
4 4 5 5 6 6 6 6 7 8 9 9 9 10 10 10 10 11 10 11 12 14 15 16 17 18 19 20 21 23 24 26 27 27 28 28 26 25 24 23 22 21 21 22 22 22 23 23 23 23 24 24 24 24 24 24 24 24 25 25 25 26 28 30 31 31 31 29 28 26 24 23 23 21 20 19 15 10 11 13 8 5 12 20 22
7 9 10 11 12 12 12 12 12 12 12 13 13 13 14 15 16 17 17 18 18 19 21 23 24 24 24 25 25 26 25 24 23 23 23 21 20 19 18 17 18 19 20 22 23 23 22 22 22 21 21 20 20 19 19 19 19 19 19 20 20 21 22 23 25 28 30 30 31 30 28 27 25 22 21 22 22 18 13 5 1 11 22 23 20
17 17 17 17 17 17 17 17 18 18 18 19 19 20 20 21 21 22 24 24 24 23 22 21 21 22 22 22 22 21 20 18 17 16 15 16 17 18 19 21 23 23 22 21 20 18 17 16 15 15 14 14 14 13 12 12 13 13 13 12 12 13 13 13 13 14 17 21 24 26 26 27 28 27 25 23 22 20 11 4 13 28 28 14 10
18 18 19 20 20 20 20 21 21 21 21 21 21 22 22 22 22 21 21 21 22 22 21 20 20 19 17 17 16 15 14 15 16 17 19 21 22 22 22 21 19 18 17 16 15 14 15 14 14 13 13 11 10 10 11 11 11 10 10 9 9 9 9 9 8 7 9 14 16 17 21 25 26 26 26 21 18 22 23 22 24 25 16 9 11
16 16 17 17 17 17 17 18 18 17 17 18 18 18 18 17 17 17 16 16 16 17 17 18 18 17 16 15 15 15 17 19 20 21 22 21 19 19 18 17 16 17 16 15 15 15 13 12 11 10 9 9 10 10 10 10 11 12 12 12 11 9 8 9 9 7 7 10 11 14 21 29 33 34 30 20 15 24 32 27 17 10 8 10 13
14 14 14 14 14 14 14 15 15 15 15 15 15 15 15 15 14 14 14 14 14 15 16 17 17 17 17 18 18 19 20 19 19 19 18 17 16 16 16 16 16 14 12 11 11 9 8 9 12 14 18 20 20 19 21 24 25 26 27 27 27 25 21 20 19 15 9 7 10 13 17 21 23 27 29 24 16 14 14 10 5 5 8 10 11
12 12 12 12 13 13 13 14 14 14 14 15 15 15 15 15 15 15 14 15 16 17 17 18 17 18 19 19 20 20 20 19 19 18 17 16 15 13 11 11 10 8 9 10 9 10 14 19 22 26 29 28 28 31 35 35 36 40 43 44 43 42 40 37 32 23 12 5 5 11 21 28 27 24 23 21 13 5 7 15 13 3 0 9 15
12 13 13 13 13 13 13 14 14 14 14 15 15 16 17 17 16 16 16 18 18 18 18 17 17 17 17 17 18 19 19 18 17 14 12 11 10 10 11 12 12 12 14 14 15 20 25 26 27 27 24 23 27 32 33 31 37 45 50 52 50 48 46 45 39 26 13 4 1 8 24 35 32 19 13 17 20 17 17 25 20 -0 -11 1 14
13 13 13 13 13 13 14 14 14 14 15 15 17 18 17 17 16 16 17 18 17 16 16 15 15 16 16 16 16 16 14 11 9 8 9 11 13 14 15 15 14 16 18 18 21 24 22 21 22 21 17 19 27 30 27 29 34 33 33 44 52 48 43 43 38 26 15 8 3 7 14 14 4 -8 -9 5 21 19 7 6 9 -2 -17 -14 5
14 14 14 14 14 14 14 14 15 15 16 17 18 17 15 14 15 16 16 15 14 14 14 14 14 15 14 13 12 9 7 7 8 10 13 15 15 14 14 14 16 19 20 21 24 24 22 21 20 15 14 22 31 29 27 35 40 35 32 40 44 37 33 36 32 23 16 10 4 5 11 13 10 7 6 11 20 16 1 -6 -1 -1 -12 -15 -1
13 13 13 13 14 14 14 14 15 16 17 17 17 16 14 13 14 14 13 12 12 12 11 11 11 10 9 8 7 7 7 9 11 13 15 14 12 12 14 16 19 20 20 23 27 29 30 28 18 10 15 30 36 29 23 26 28 26 24 26 26 23 26 31 29 23 19 16 10 7 8 11 14 16 15 15 18 20 18 16 13 11 10 8 9
13 13 13 13 13 14 15 16 17 17 18 17 16 14 13 13 12 11 11 11 11 10 9 9 9 9 8 9 9 9 10 11 12 13 13 11 12 15 18 19 19 19 19 21 24 29 33 28 15 10 19 28 27 24 22 17 14 13 14 19 27 32 31 28 26 23 18 14 12 10 7 7 9 11 14 17 19 19 22 24 22 21 25 23 16
13 13 13 13 14 15 16 17 18 18 16 14 12 11 10 9 8 8 8 9 10 10 11 12 12 12 12 13 12 12 12 12 13 13 12 12 15 18 18 17 16 14 12 11 13 24 36 32 18 13 17 16 13 19 24 21 20 22 21 19 21 25 23 21 22 21 16 13 13 13 12 12 13 12 13 19 23 22 20 21 22 23 25 23 18
13 14 14 15 16 16 17 17 16 15 13 11 10 9 9 8 8 9 10 11 12 12 12 13 13 13 13 13 12 11 12 12 13 12 12 14 17 17 14 11 10 9 7 4 3 16 37 41 25 13 12 10 9 12 13 8 5 6 5 4 7 12 15 18 19 18 18 17 15 14 15 16 16 15 13 15 20 23 23 21 19 20 22 21 18
13 15 16 17 17 16 15 14 12 10 9 9 9 10 10 11 12 13 13 13 13 13 12 12 12 12 12 12 12 12 13 13 12 12 13 14 14 12 9 8 6 5 6 5 3 13 34 44 31 13 8 12 15 12 7 4 5 6 5 6 9 8 9 12 15 16 18 19 18 18 16 13 12 14 17 17 19 23 24 22 18 17 17 15 13
15 16 17 18 17 15 12 10 9 10 11 12 12 12 13 13 13 12 11 11 11 11 11 11 11 11 12 13 13 13 14 13 11 12 12 12 10 7 6 6 4 1 1 4 8 15 28 37 31 20 13 15 18 16 11 9 10 7 3 5 10 11 10 9 7 5 7 11 17 21 21 17 14 14 16 16 15 14 14 13 13 12 10 8 12
15 16 17 16 14 11 10 9 10 12 12 12 11 12 12 11 8 7 6 7 8 9 9 10 11 13 15 16 15 15 14 12 11 12 12 10 7 5 4 4 3 1 -2 -1 6 15 22 23 23 23 21 16 11 8 7 9 8 4 1 7 15 18 17 14 10 6 7 9 12 14 16 17 18 18 18 17 15 12 10 11 12 12 12 15 21
15 15 15 13 11 10 10 11 12 12 11 10 10 10 8 5 4 4 6 7 8 8 9 11 15 17 18 18 17 15 12 10 10 12 13 11 7 6 5 4 4 4 0 -4 1 12 20 17 13 15 20 20 15 8 3 2 3 3 5 9 11 10 10 12 14 16 15 13 10 8 9 13 16 18 20 20 18 17 19 21 22 22 24 26 26
15 13 11 10 10 11 11 11 11 10 9 9 8 6 5 4 4 6 8 8 8 8 10 14 16 16 15 15 15 14 12 11 11 12 13 12 9 7 7 6 4 3 2 0 2 10 18 18 13 9 9 13 16 17 13 8 5 4 4 5 5 4 3 3 4 6 9 11 9 4 2 5 11 16 18 19 19 18 18 20 23 25 25 22 18
Height
5757 5758 5759 5760 5760 5760 5761 5762 5763 5765 5766 5767 5767 5768 5769 5770 5771 5772 5772 5773 5774 5774 5775 5776 5777 5777 5778 5778 5779 5780 5780 5781 5782 5783 5783 5784 5784 5785 5785 5785 5785 5785 5786 5786 5786 5786 5786 5786 5787 5787 5787 5787 5787 5788 5788 5789 5789 5789 5789 5789 5789 5789 5789 5789 5789 5789 5789 5789 5789 5788 5788 5788 5788 5787 5787 5787 5786 5786 5786 5786 5786 5786 5786 5785 5785
5755 5755 5756 5757 5758 5758 5758 5759 5760 5761 5762 5763 5764 5765 5766 5767 5768 5769 5770 5771 5772 5773 5774 5774 5775 5776 5776 5777 5778 5778 5779 5780 5780 5781 5782 5782 5783 5783 5784 5784 5784 5784 5784 5784 5784 5785 5785 5785 5785 5785 5785 5786 5786 5786 5786 5786 5787 5787 5787 5787 5787 5788 5788 5787 5787 5787 5787 5787 5787 5786 5786 5786 5785 5785 5785 5784 5784 5784 5784 5784 5784 5784 5784 5783 5783
5751 5752 5754 5755 5756 5756 5756 5757 5758 5758 5760 5761 5762 5763 5764 5765 5766 5767 5768 5769 5770 5771 5772 5772 5773 5774 5774 5775 5775 5776 5777 5778 5779 5780 5780 5781 5781 5782 5782 5783 5783 5783 5783 5783 5783 5783 5784 5784 5784 5784 5784 5784 5784 5784 5784 5785 5785 5785 5786 5786 5786 5786 5786 5786 5785 5785 5785 5785 5785 5784 5784 5784 5783 5783 5783 5782 5782 5782 5782 5782 5782 5782 5782 5781 5781
5748 5749 5751 5752 5754 5755 5755 5755 5756 5757 5758 5759 5761 5761 5762 5763 5763 5764 5765 5766 5767 5768 5769 5770 5771 5771 5772 5772 5773 5774 5775 5776 5777 5778 5779 5779 5780 5780 5781 5781 5781 5781 5782 5782 5782 5782 5782 5782 5782 5782 5782 5782 5782 5783 5783 5783 5783 5783 5784 5784 5784 5784 5784 5784 5784 5784 5783 5783 5783 5782 5782 5782 5782 5781 5781 5780 5780 5780 5779 5779 5779 5779 5779 5779 5778
5744 5746 5748 5749 5751 5752 5753 5753 5754 5755 5756 5757 5759 5760 5760 5761 5762 5762 5763 5763 5764 5765 5766 5767 5768 5769 5770 5770 5771 5772 5773 5774 5775 5775 5776 5777 5778 5778 5779 5779 5779 5780 5780 5781 5781 5781 5781 5781 5781 5781 5781 5781 5781 5781 5781 5781 5781 5782 5782 5782 5782 5782 5782 5782 5782 5782 5781 5781 5781 5780 5780 5780 5780 5779 5779 5779 5778 5778 5777 5777 5776 5776 5776 5775 5775
5741 5743 5744 5746 5748 5749 5750 5751 5752 5753 5754 5755 5756 5758 5759 5759 5760 5760 5760 5761 5762 5763 5764 5764 5765 5766 5767 5768 5769 5769 5770 5771 5772 5773 5774 5774 5775 5776 5777 5777 5777 5778 5778 5779 5779 5779 5779 5779 5779 5779 5779 5779 5779 5779 5779 5779 5779 5779 5779 5779 5779 5779 5779 5779 5779 5779 5779 5779 5778 5778 5778 5778 5778 5777 5777 5776 5776 5775 5774 5774 5774 5773 5773 5772 5772
5739 5740 5741 5742 5744 5746 5747 5749 5750 5750 5751 5752 5754 5755 5756 5756 5757 5757 5758 5758 5759 5760 5761 5762 5763 5764 5765 5766 5766 5767 5768 5768 5769 5770 5771 5772 5773 5773 5774 5775 5775 5776 5776 5776 5776 5777 5777 5777 5777 5777 5778 5778 5778 5778 5778 5777 5777 5777 5777 5777 5777 5776 5776 5776 5776 5776 5775 5775 5775 5775 5775 5775 5775 5774 5774 5774 5773 5772 5772 5771 5771 5770 5770 5769 5769
5736 5737 5738 5740 5741 5743 5745 5746 5747 5747 5748 5749 5751 5752 5752 5753 5754 5754 5755 5756 5757 5757 5758 5759 5760 5761 5762 5763 5764 5765 5765 5766 5767 5768 5768 5769 5770 5771 5772 5773 5773 5773 5774 5774 5774 5774 5774 5774 5774 5775 5775 5775 5775 5775 5775 5775 5775 5775 5775 5774 5774 5774 5773 5773 5773 5772 5772 5772 5772 5772 5772 5772 5771 5771 5770 5770 5770 5769 5769 5769 5768 5767 5767 5766 5765
5733 5735 5736 5737 5739 5741 5742 5743 5744 5745 5745 5746 5747 5748 5749 5750 5751 5752 5752 5753 5754 5755 5756 5757 5757 5758 5759 5760 5761 5762 5763 5764 5765 5766 5766 5767 5768 5768 5769 5770 5770 5771 5771 5771 5771 5771 5771 5772 5772 5772 5772 5772 5772 5772 5772 5772 5772 5772 5772 5772 5772 5771 5771 5770 5770 5770 5770 5769 5769 5769 5769 5768 5768 5767 5767 5767 5766 5766 5766 5765 5765 5764 5763 5762 5762
5731 5732 5734 5735 5736 5738 5740 5740 5741 5741 5742 5742 5744 5745 5746 5747 5748 5749 5750 5750 5751 5752 5753 5754 5755 5755 5756 5757 5759 5760 5761 5762 5763 5763 5764 5765 5765 5766 5766 5767 5767 5768 5768 5768 5768 5769 5769 5769 5769 5769 5769 5769 5769 5769 5769 5769 5769 5769 5769 5769 5769 5769 5768 5768 5767 5767 5767 5767 5766 5766 5766 5765 5765 5764 5764 5763 5763 5763 5762 5762 5761 5760 5759 5758 5758
5728 5730 5731 5732 5733 5735 5736 5737 5738 5739 5739 5740 5742 5743 5743 5744 5745 5746 5747 5748 5749 5749 5750 5751 5752 5753 5753 5754 5756 5757 5758 5759 5759 5760 5761 5762 5762 5763 5763 5764 5764 5765 5765 5765 5765 5766 5766 5766 5766 5766 5766 5766 5766 5766 5766 5766 5766 5766 5766 5766 5766 5765 5765 5765 5764 5764 5764 5764 5763 5763 5763 5762 5761 5761 5760 5760 5759 5759 5759 5758 5757 5756 5755 5754 5753
5726 5727 5728 5730 5731 5732 5734 5735 5736 5738 5738 5739 5740 5740 5741 5741 5742 5743 5744 5745 5746 5747 5747 5748 5749 5750 5751 5752 5752 5753 5754 5755 5756 5757 5757 5758 5759 5760 5760 5761 5761 5761 5762 5762 5762 5762 5762 5762 5762 5762 5762 5762 5762 5762 5762 5762 5762 5762 5762 5762 5762 5762 5762 5762 5761 5761 5761 5761 5760 5760 5759 5758 5757 5757 5756 5755 5755 5754 5754 5753 5752 5751 5750 5749 5748
5723 5725 5726 5727 5728 5730 5732 5733 5734 5735 5736 5736 5737 5738 5738 5739 5740 5741 5742 5742 5743 5744 5745 5745 5746 5747 5748 5749 5750 5751 5751 5752 5753 5753 5754 5755 5756 5756 5757 5757 5757 5758 5758 5758 5758 5758 5758 5758 5758 5759 5759 5759 5759 5759 5759 5759 5759 5759 5759 5759 5758 5758 5758 5758 5758 5757 5757 5757 5757 5756 5755 5754 5753 5753 5752 5751 5750 5750 5749 5748 5747 5746 5745 5745 5744
5720 5722 5723 5724 5726 5727 5729 5730 5731 5732 5732 5733 5734 5735 5735 5736 5738 5738 5739 5740 5740 5741 5742 5743 5743 5744 5745 5746 5747 5747 5748 5749 5749 5750 5750 5751 5752 5752 5753 5753 5753 5754 5754 5754 5754 5754 5754 5754 5754 5754 5754 5754 5754 5754 5754 5754 5754 5754 5754 5754 5754 5753 5753 5753 5753 5752 5752 5752 5752 5751 5750 5750 5749 5749 5748 5747 5746 5745 5744 5743 5742 5741 5740 5740 5739
5717 5719 5721 5722 5724 5725 5726 5727 5728 5729 5730 5730 5731 5732 5733 5733 5734 5735 5736 5737 5737 5738 5739 5739 5740 5741 5742 5742 5743 5744 5745 5745 5746 5746 5747 5747 5748 5749 5749 5749 5749 5750 5750 5750 5750 5750 5750 5750 5750 5749 5749 5749 5749 5749 5749 5749 5749 5749 5749 5749 5749 5748 5748 5748 5747 5747 5746 5746 5746 5745 5745 5744 5744 5744 5744 5743 5741 5740 5739 5738 5737 5736 5735 5734 5733
5714 5716 5718 5719 5721 5722 5723 5724 5725 5726 5726 5727 5727 5728 5729 5730 5731 5732 5733 5733 5734 5735 5736 5736 5737 5737 5738 5739 5739 5740 5741 5742 5743 5743 5744 5744 5745 5745 5745 5746 5746 5746 5746 5745 5745 5745 5745 5745 5744 5744 5744 5743 5743 5744 5744 5744 5744 5743 5743 5743 5743 5742 5742 5742 5741 5740 5740 5740 5739 5739 5738 5738 5737 5738 5737 5737 5736 5735 5733 5732 5731 5730 5729 5728 5727
5712 5713 5714 5716 5717 5719 5720 5721 5721 5722 5722 5723 5724 5725 5726 5727 5728 5729 5730 5730 5731 5732 5732 5733 5733 5734 5734 5735 5736 5736 5737 5738 5738 5739 5740 5740 5741 5741 5741 5741 5741 5741 5741 5740 5740 5740 5740 5739 5739 5738 5738 5737 5737 5737 5737 5737 5737 5737 5737 5736 5736 5736 5735 5735 5734 5734 5733 5733 5732 5731 5731 5730 5730 5730 5730 5730 5729 5728 5727 5727 5725 5724 5722 5721 5720
5710 5711 5712 5713 5714 5715 5716 5717 5718 5718 5720 5721 5722 5723 5724 5725 5725 5725 5726 5727 5727 5728 5728 5729 5730 5730 5731 5731 5732 5732 5733 5733 5734 5734 5735 5735 5736 5736 5737 5737 5737 5736 5736 5735 5735 5734 5734 5734 5733 5733 5732 5731 5731 5731 5731 5731 5731 5730 5730 5730 5729 5729 5728 5727 5727 5726 5726 5726 5725 5724 5724 5723 5723 5722 5722 5722 5721 5721 5720 5719 5719 5717 5716 5715 5713
5707 5708 5709 5710 5711 5712 5714 5714 5715 5715 5716 5718 5719 5720 5721 5722 5722 5721 5722 5723 5724 5724 5724 5725 5725 5726 5727 5727 5727 5728 5728 5728 5729 5729 5729 5730 5730 5731 5731 5731 5731 5731 5731 5730 5729 5729 5728 5728 5727 5727 5726 5726 5725 5725 5725 5725 5725 5724 5724 5723 5723 5722 5721 5720 5720 5719 5719 5719 5718 5717 5717 5717 5716 5715 5714 5713 5713 5712 5712 5711 5710 5709 5708 5707 5705
5703 5704 5706 5707 5708 5708 5710 5711 5712 5712 5712 5714 5715 5716 5717 5717 5718 5718 5717 5718 5719 5719 5720 5720 5720 5720 5721 5721 5722 5722 5723 5723 5724 5724 5724 5724 5724 5725 5725 5726 5726 5726 5725 5724 5724 5723 5723 5722 5721 5721 5720 5720 5719 5719 5719 5718 5718 5718 5717 5717 5717 5716 5714 5713 5713 5712 5712 5711 5711 5710 5710 5709 5708 5707 5706 5705 5705 5704 5703 5702 5701 5701 5700 5699 5698
5699 5701 5702 5703 5704 5705 5705 5706 5708 5708 5709 5710 5711 5711 5712 5712 5713 5714 5713 5714 5715 5715 5716 5717 5716 5715 5715 5715 5715 5717 5718 5718 5718 5718 5718 5719 5719 5719 5720 5720 5720 5720 5719 5719 5718 5717 5716 5715 5715 5714 5714 5713 5712 5712 5711 5711 5710 5710 5710 5709 5709 5708 5706 5706 5705 5704 5704 5703 5703 5702 5702 5701 5700 5699 5698 5697 5697 5696 5695 5695 5694 5693 5692 5692 5691
5695 5697 5699 5700 5701 5701 5701 5702 5703 5704 5705 5706 5706 5707 5707 5707 5708 5709 5709 5710 5710 5710 5711 5712 5712 5711 5711 5710 5711 5712 5712 5712 5713 5713 5713 5713 5713 5713 5713 5713 5714 5714 5713 5712 5711 5710 5709 5708 5708 5707 5706 5706 5705 5704 5703 5702 5702 5702 5701 5700 5699 5699 5698 5697 5696 5696 5695 5694 5694 5693 5693 5693 5692 5691 5690 5689 5688 5688 5687 5687 5687 5686 5685 5685 5684
5691 5692 5694 5695 5697 5697 5697 5698 5699 5700 5700 5701 5702 5702 5702 5703 5703 5703 5704 5705 5705 5706 5706 5706 5707 5707 5707 5706 5706 5706 5706 5706 5706 5707 5706 5706 5706 5706 5706 5706 5706 5706 5705 5705 5704 5703 5702 5701 5700 5699 5698 5697 5696 5695 5694 5693 5692 5692 5692 5691 5690 5689 5689 5688 5688 5687 5686 5686 5685 5685 5684 5684 5683 5683 5682 5681 5680 5680 5679 5679 5679 5678 5677 5677 5676
5687 5688 5689 5691 5692 5693 5694 5694 5695 5696 5696 5697 5697 5697 5697 5698 5698 5698 5698 5699 5700 5700 5700 5701 5701 5701 5701 5700 5700 5699 5699 5699 5699 5698 5698 5697 5697 5698 5698 5698 5698 5697 5697 5697 5696 5695 5693 5692 5691 5690 5689 5688 5687 5686 5685 5684 5683 5682 5682 5681 5680 5679 5679 5679 5679 5678 5677 5677 5676 5676 5675 5675 5674 5673 5673 5673 5672 5672 5671 5670 5670 5670 5670 5669 5668
5681 5683 5684 5685 5687 5688 5689 5690 5690 5691 5691 5692 5692 5692 5692 5692 5692 5692 5692 5693 5693 5694 5694 5694 5695 5695 5694 5694 5693 5692 5691 5691 5690 5689 5689 5689 5688 5688 5688 5688 5688 5688 5688 5687 5686 5686 5685 5684 5682 5681 5680 5679 5678 5677 5676 5675 5674 5673 5672 5671 5669 5669 5669 5669 5669 5669 5668 5668 5667 5667 5666 5665 5664 5664 5664 5664 5663 5663 5662 5662 5662 5662 5662 5661 5660
5676 5677 5678 5679 5681 5682 5683 5684 5685 5686 5686 5686 5687 5687 5687 5687 5687 5687 5687 5687 5687 5687 5687 5687 5688 5688 5687 5686 5686 5685 5683 5683 5682 5681 5681 5680 5680 5679 5678 5678 5678 5678 5678 5677 5676 5676 5676 5675 5673 5672 5671 5670 5669 5668 5667 5666 5664 5664 5663 5662 5660 5660 5659 5659 5659 5658 5658 5658 5658 5657 5656 5655 5655 5655 5655 5655 5655 5655 5654 5654 5654 5654 5654 5653 5653
5671 5672 5673 5674 5675 5676 5677 5678 5679 5680 5680 5681 5681 5681 5681 5682 5682 5682 5681 5681 5681 5681 5681 5681 5680 5680 5679 5679 5678 5677 5675 5674 5674 5673 5672 5671 5671 5670 5669 5669 5668 5667 5667 5666 5666 5666 5666 5665 5663 5662 5662 5661 5659 5658 5657 5656 5654 5653 5652 5652 5651 5650 5649 5648 5648 5648 5648 5648 5647 5647 5646 5646 5645 5645 5646 5646 5646 5646 5645 5645 5646 5646 5646 5645 5645
5666 5667 5668 5669 5669 5670 5671 5672 5673 5673 5674 5674 5675 5675 5675 5675 5676 5675 5675 5675 5674 5674 5673 5673 5672 5672 5671 5670 5670 5668 5667 5665 5665 5664 5663 5662 5662 5661 5660 5659 5658 5657 5656 5655 5655 5655 5654 5653 5652 5651 5650 5650 5649 5647 5646 5644 5644 5642 5641 5640 5639 5638 5638 5637 5637 5637 5637 5637 5636 5636 5636 5636 5635 5635 5636 5636 5636 5636 5637 5637 5638 5638 5637 5637 5637
5661 5662 5663 5663 5664 5665 5665 5666 5667 5667 5667 5667 5668 5668 5668 5668 5668 5668 5668 5667 5666 5666 5666 5665 5664 5664 5663 5662 5661 5660 5658 5656 5656 5655 5654 5653 5652 5651 5650 5649 5648 5647 5645 5644 5644 5643 5642 5641 5640 5639 5638 5638 5637 5635 5634 5632 5631 5631 5629 5628 5627 5627 5626 5625 5625 5625 5625 5625 5624 5625 5625 5626 5626 5626 5626 5627 5627 5627 5628 5629 5630 5631 5630 5629 5629
5655 5657 5657 5658 5659 5659 5660 5661 5661 5661 5660 5661 5661 5661 5661 5661 5661 5661 5661 5660 5660 5659 5659 5658 5657 5656 5655 5654 5653 5652 5650 5648 5647 5646 5645 5643 5642 5641 5640 5638 5637 5636 5635 5634 5633 5632 5630 5629 5628 5626 5625 5625 5624 5623 5621 5620 5618 5617 5616 5615 5615 5614 5613 5613 5613 5612 5612 5613 5613 5614 5615 5616 5616 5617 5618 5618 5618 5619 5620 5622 5623 5624 5623 5622 5622
5649 5650 5651 5652 5652 5653 5654 5654 5655 5654 5654 5653 5653 5654 5654 5654 5654 5654 5654 5653 5653 5653 5651 5650 5649 5648 5646 5645 5644 5643 5642 5640 5638 5636 5635 5633 5632 5630 5628 5627 5626 5624 5623 5622 5621 5619 5617 5617 5615 5614 5612 5612 5611 5609 5608 5607 5606 5604 5603 5603 5603 5602 5602 5601 5600 5600 5600 5601 5602 5603 5604 5605 5607 5609 5611 5611 5611 5611 5611 5613 5615 5616 5616 5616 5616
5643 5644 5644 5645 5646 5647 5647 5647 5648 5648 5647 5647 5646 5646 5646 5646 5646 5646 5646 5645 5645 5645 5643 5642 5640 5638 5637 5636 5634 5633 5631 5630 5628 5627 5625 5623 5621 5619 5617 5615 5614 5612 5611 5610 5609 5607 5605 5605 5603 5601 5600 5599 5598 5597 5596 5595 5594 5593 5592 5591 5591 5591 5591 5590 5589 5589 5589 5590 5591 5593 5594 5595 5597 5600 5602 5604 5605 5604 5604 5605 5607 5608 5608 5609 5609
5635 5636 5637 5638 5638 5639 5639 5640 5640 5640 5640 5639 5638 5637 5636 5636 5636 5637 5637 5636 5636 5635 5633 5632 5630 5628 5627 5626 5625 5623 5621 5619 5618 5616 5615 5613 5611 5609 5607 5605 5604 5603 5601 5600 5599 5597 5595 5594 5593 5591 5589 5588 5586 5585 5585 5584 5583 5582 5581 5581 5580 5580 5581 5580 5580 5580 5580 5581 5581 5583 5584 5585 5587 5589 5591 5594 5597 5597 5597 5597 5599 5600 5601 5602 5602
5626 5627 5628 5629 5629 5630 5630 5630 5630 5630 5630 5630 5629 5628 5627 5626 5625 5625 5626 5626 5626 5625 5624 5622 5621 5619 5618 5617 5615 5613 5612 5610 5608 5607 5606 5604 5603 5601 5599 5597 5595 5594 5592 5591 5589 5587 5586 5584 5583 5581 5580 5579 5577 5576 5575 5574 5574 5573 5572 5572 5571 5571 5572 5572 5572 5572 5572 5572 5573 5574 5575 5576 5578 5579 5582 5584 5587 5589 5589 5591 5593 5594 5595 5595 5596
5618 5619 5620 5621 5621 5621 5621 5622 5622 5622 5622 5621 5620 5619 5619 5617 5616 5614 5614 5615 5616 5616 5615 5614 5612 5611 5609 5608 5607 5605 5604 5602 5601 5599 5598 5596 5594 5593 5591 5589 5588 5586 5585 5583 5581 5580 5578 5577 5575 5573 5572 5570 5569 5568 5567 5566 5565 5564 5563 5563 5562 5563 5563 5564 5565 5565 5565 5565 5566 5566 5567 5568 5569 5571 5573 5576 5579 5580 5582 5584 5587 5588 5588 5588 5589
5612 5612 5613 5614 5614 5614 5614 5614 5614 5614 5613 5613 5612 5611 5610 5609 5608 5607 5606 5605 5606 5606 5607 5606 5605 5603 5601 5600 5599 5598 5596 5595 5594 5592 5591 5589 5587 5586 5584 5583 5581 5580 5578 5576 5575 5573 5571 5570 5568 5566 5564 5562 5560 5559 5558 5557 5556 5555 5554 5554 5553 5554 5555 5556 5557 5558 5559 5559 5559 5560 5560 5561 5562 5564 5566 5570 5572 5574 5576 5578 5580 5580 5581 5582 5583
5605 5606 5606 5606 5606 5606 5607 5607 5607 5606 5606 5606 5605 5604 5603 5602 5601 5601 5600 5599 5599 5599 5599 5598 5598 5596 5595 5593 5592 5591 5590 5589 5587 5586 5584 5583 5581 5580 5579 5577 5575 5574 5572 5570 5568 5566 5564 5562 5560 5558 5555 5553 5551 5549 5548 5547 5546 5545 5544 5543 5543 5544 5545 5547 5549 5551 5552 5553 5553 5554 5554 5554 5556 5558 5560 5564 5568 5570 5571 5572 5573 5574 5575 5576 5578
5599 5600 5600 5600 5600 5600 5601 5601 5601 5600 5600 5599 5599 5598 5597 5596 5596 5595 5594 5594 5593 5593 5592 5592 5591 5590 5589 5588 5586 5585 5584 5583 5582 5581 5579 5578 5577 5575 5574 5572 5570 5568 5566 5563 5561 5559 5557 5554 5552 5549 5546 5544 5541 5539 5537 5536 5534 5533 5532 5532 5532 5533 5534 5537 5540 5543 5545 5547 5548 5548 5548 5549 5551 5553 5556 5560 5564 5565 5566 5566 5567 5568 5570 5572 5574
5594 5595 5595 5595 5595 5595 5596 5596 5596 5595 5595 5594 5593 5593 5592 5591 5591 5590 5590 5589 5589 5588 5587 5586 5585 5584 5583 5582 5581 5580 5579 5578 5577 5575 5574 5573 5572 5570 5569 5567 5565 5563 5560 5557 5555 5552 5550 5547 5544 5541 5538 5535 5532 5530 5527 5525 5523 5522 5521 5520 5520 5521 5523 5526 5530 5534 5538 5541 5542 5543 5544 5545 5547 5549 5552 5556 5559 5560 5560 5561 5562 5564 5567 5568 5570
5589 5590 5590 5590 5591 5591 5591 5591 5591 5591 5590 5590 5589 5588 5587 5586 5586 5586 5586 5585 5584 5583 5582 5581 5580 5579 5578 5578 5577 5576 5575 5573 5572 5571 5569 5568 5567 5565 5564 5562 5559 5557 5554 5551 5548 5545 5543 5540 5537 5535 5532 5529 5526 5523 5520 5517 5515 5513 5511 5511 5511 5512 5514 5517 5521 5526 5531 5535 5537 5539 5540 5541 5543 5544 5547 5550 5552 5554 5555 5556 5558 5560 5563 5564 5566
5585 5585 5586 5586 5586 5587 5587 5587 5587 5586 5586 5585 5584 5584 5583 5582 5582 5582 5582 5581 5580 5580 5579 5578 5576 5576 5575 5574 5573 5572 5571 5569 5568 5567 5565 5564 5562 5561 5559 5557 5554 5551 5549 5546 5543 5540 5537 5535 5532 5530 5528 5525 5522 5519 5515 5512 5510 5508 5506 5505 5505 5506 5508 5512 5515 5520 5525 5529 5531 5534 5536 5538 5540 5541 5543 5545 5547 5548 5550 5552 5554 5556 5558 5560 5562
5581 5581 5581 5582 5582 5582 5582 5582 5582 5582 5582 5581 5581 5580 5579 5579 5579 5579 5578 5577 5577 5576 5575 5574 5573 5573 5572 5571 5570 5568 5567 5566 5564 5563 5561 5560 5558 5556 5554 5552 5549 5546 5543 5541 5538 5535 5533 5530 5528 5526 5524 5521 5518 5515 5512 5509 5507 5505 5503 5503 5503 5504 5506 5508 5512 5516 5520 5523 5527 5529 5531 5534 5536 5537 5538 5540 5542 5543 5545 5547 5550 5552 5554 5556 5558
5576 5576 5577 5577 5578 5578 5578 5578 5578 5578 5578 5577 5577 5576 5576 5576 5576 5575 5574 5574 5573 5573 5572 5571 5570 5570 5569 5568 5566 5565 5564 5562 5561 5559 5557 5556 5554 5552 5550 5547 5544 5541 5539 5536 5534 5531 5529 5527 5525 5523 5521 5518 5515 5513 5511 5509 5507 5505 5504 5503 5503 5504 5506 5508 5511 5514 5517 5520 5523 5525 5527 5529 5531 5532 5534 5535 5537 5538 5540 5542 5545 5547 5549 5552 5554
5571 5572 5572 5573 5573 5573 5574 5574 5574 5574 5574 5574 5573 5573 5573 5572 5572 5572 5571 5571 5570 5570 5569 5568 5567 5567 5565 5564 5563 5562 5560 5559 5557 5556 5554 5552 5550 5548 5545 5543 5540 5538 5536 5533 5531 5528 5526 5524 5522 5520 5518 5516 5514 5512 5510 5509 5508 5507 5506 5506 5506 5506 5507 5509 5510 5513 5515 5517 5520 5522 5523 5525 5526 5528 5529 5531 5532 5534 5536 5537 5540 5542 5544 5546 5549
5567 5568 5568 5568 5569 5569 5570 5570 5570 5571 5571 5570 5570 5570 5570 5569 5569 5569 5568 5568 5567 5567 5566 5565 5564 5563 5562 5561 5559 5558 5557 5555 5554 5552 5550 5548 5546 5544 5542 5540 5538 5536 5533 5531 5528 5526 5524 5521 5520 5519 5517 5516 5514 5512 5511 5510 5509 5509 5508 5507 5507 5507 5508 5509 5510 5511 5513 5515 5517 5519 5521 5522 5523 5524 5525 5527 5528 5530 5531 5533 5535 5537 5539 5541 5543
5563 5564 5564 5565 5565 5566 5566 5567 5567 5567 5567 5567 5567 5567 5567 5566 5566 5566 5565 5565 5564 5564 5563 5562 5561 5560 5559 5558 5556 5555 5554 5552 5550 5549 5547 5545 5543 5541 5540 5538 5536 5534 5532 5529 5527 5524 5521 5519 5518 5517 5516 5515 5514 5513 5512 5511 5510 5510 5509 5508 5508 5508 5508 5509 5509 5511 5512 5514 5516 5517 5519 5520 5521 5522 5523 5523 5525 5526 5527 5529 5531 5533 5535 5537 5539
5559 5560 5561 5561 5562 5562 5563 5563 5564 5564 5564 5564 5564 5564 5564 5564 5563 5563 5563 5562 5562 5561 5560 5559 5558 5557 5556 5554 5553 5552 5550 5549 5547 5546 5544 5543 5541 5539 5538 5536 5534 5532 5530 5528 5525 5523 5520 5518 5516 5516 5515 5514 5514 5513 5512 5511 5511 5510 5509 5509 5509 5509 5509 5509 5510 5511 5512 5513 5514 5515 5517 5518 5519 5520 5521 5522 5523 5524 5525 5527 5529 5531 5532 5534 5535
5555 5556 5557 5558 5559 5559 5560 5560 5561 5561 5561 5561 5561 5561 5561 5561 5561 5560 5560 5559 5559 5558 5557 5556 5555 5554 5553 5551 5550 5548 5547 5546 5544 5543 5542 5540 5539 5537 5536 5534 5532 5531 5529 5527 5525 5522 5520 5517 5516 5515 5514 5514 5513 5512 5512 5511 5511 5510 5510 5509 5509 5509 5509 5510 5510 5511 5512 5512 5513 5514 5515 5516 5516 5517 5518 5520 5521 5522 5524 5525 5527 5528 5530 5531 5532
5552 5553 5554 5555 5556 5556 5557 5558 5558 5558 5558 5558 5558 5558 5558 5558 5558 5558 5557 5557 5556 5555 5554 5553 5552 5550 5549 5548 5547 5545 5544 5542 5541 5540 5539 5538 5536 5535 5533 5532 5530 5529 5527 5525 5524 5522 5519 5517 5516 5515 5514 5513 5513 5512 5512 5511 5511 5510 5510 5510 5510 5509 5510 5510 5510 5511 5511 5512 5513 5513 5514 5514 5515 5516 5517 5518 5519 5520 5521 5523 5524 5525 5526 5527 5528
5549 5550 5551 5552 5553 5554 5554 5555 5555 5555 5556 5556 5556 5556 5556 5556 5555 5555 5554 5554 5553 5552 5551 5550 5548 5547 5546 5544 5543 5542 5541 5539 5538 5537 5536 5535 5534 5532 5531 5530 5528 5527 5525 5524 5522 5521 5519 5517 5516 5515 5514 5513 5512 5512 5511 5511 5510 5510 5510 5510 5509 5509 5509 5510 5510 5510 5511 5511 5512 5512 5513 5513 5514 5514 5515 5516 5517 5518 5519 5520 5522 5523 5523 5524 5526
5546 5547 5548 5549 5550 5551 5551 5552 5552 5553 5553 5553 5553 5553 5553 5553 5552 5552 5551 5551 5550 5549 5548 5546 5545 5544 5542 5541 5540 5538 5537 5536 5535 5534 5533 5532 5531 5529 5528 5527 5526 5524 5523 5522 5520 5519 5518 5516 5515 5514 5513 5512 5512 5511 5510 5510 5510 5509 5509 5509 5509 5509 5509 5509 5509 5509 5510 5510 5511 5511 5512 5512 5513 5513 5514 5515 5515 5516 5517 5518 5519 5520 5521 5522 5523